Regional Weather Roundup
Issued by NWS

Home | Current Version | Previous Version | Graphics & Text | Print | Product List | Glossary On
Versions: 1 2 3 4 5 6 7 8 9 10 11 12 13 14 15 16 17 18 19 20 21 22 23 24 25 26 27
000
ASUS45 KBOU 280907
RWRCO

WEATHER ROUNDUP FOR COLORADO
NATIONAL WEATHER SERVICE DENVER/BOULDER CO
300 AM MDT THU JUL 28 2016

NOTE: "FAIR" INDICATES FEW OR NO CLOUDS BELOW 12000 FEET WITH NO
SIGNIFICANT WEATHER AND/OR OBSTRUCTIONS TO VISIBILITY.

COZ001>005-013-030-031-281000-
...NORTHWEST COLORADO...

CITY           SKY/WX    TMP DP  RH WIND       PRES   REMARKS
CRAIG          FAIR      47  36  65 CALM      30.23F
HAYDEN         FAIR      55  27  33 E10       30.25F
MEEKER         FAIR      50  35  56 NE5       30.26S
MOUNT WERNER   NOT AVBL
STEAMBOAT SPGS FAIR      51  30  44 CALM      30.28S
WALDEN         FAIR      41  28  60 SE7       30.36F
$$

COZ006>008-011-281000-
...WEST CENTRAL VALLEYS...

CITY           SKY/WX    TMP DP  RH WIND       PRES   REMARKS
GRAND JUNCTION FAIR      73  31  21 E8        30.08F
MONTROSE       FAIR      64  38  38 SE9       30.21R
EAGLE          FAIR      55  28  35 E7        30.30S
RIFLE          FAIR      62  32  32 E5        30.19R
DELTA          NOT AVBL
NUCLA          NOT AVBL
$$

COZ017>023-064>068-281000-
...SOUTHWEST COLORADO...

CITY           SKY/WX    TMP DP  RH WIND       PRES   REMARKS
DURANGO        FAIR      66  30  26 N3        30.28R
CORTEZ         FAIR      58  37  45 NE7       30.19S
PAGOSA SPRINGS FAIR      60  30  32 NE5       30.38S
TELLURIDE      FAIR      56  33  40 SE6       30.50F
WOLF CREEK PAS FAIR      52  32  46 SW15      30.74F
$$

COZ009-010-012-014-032>034-037-058>063-281000-
...CENTRAL COLORADO...

CITY           SKY/WX    TMP DP  RH WIND       PRES   REMARKS
ASPEN          FAIR      55  32  41 SW10      30.35S
BUENA VISTA    FAIR      54  29  39 NW7       30.40S
COPPER MTN     FAIR      59   7  12 SW7       30.70F
BERTHOUD PASS  FAIR      50  34  53 NW7       30.71F
COTTONWOOD PAS FAIR      63  27  25 CALM      30.54S
GUNNISON       FAIR      48  36  61 CALM      30.42R
KREMMLING      FAIR      43  32  65 CALM      30.36S
LEADVILLE      FAIR      45  21  38 CALM      30.54S
MONARCH PASS   FAIR      54  28  37 S6        30.82S
SALIDA         FAIR      59  41  52 W7        30.45R
SUNLIGHT       NOT AVBL
WILKERSON PASS FAIR      52  37  58 SW5       30.67F
$$

COZ069>075-281000-
...SAN LUIS VALLEY/SANGRE DE CRISTO MOUNTAINS...

CITY           SKY/WX    TMP DP  RH WIND       PRES   REMARKS
ALAMOSA        FAIR      57  44  62 SE3       30.36R
LA VETA PASS   MOCLDY    57  41  54 S7        30.57S
SAGUACHE       FAIR      54  36  50 CALM      30.40S
$$

COZ035-036-038>040-281000-
...NORTHERN COLORADO FRONT RANGE...

CITY           SKY/WX    TMP DP  RH WIND       PRES   REMARKS
DENVER INTL AP FAIR      68  56  65 SW12      30.16F
DMNS CITY PARK   N/A     67  57  70 W2        30.18F
AURORA         PTCLDY    66  57  72 SW6       30.19F
FRONT RANGE AP NOT AVBL
ERIE MUNI ARPT FAIR      64  58  83 NW3       30.17S
BOULDER MUN AP FAIR      68  55  64 CALM      30.18S
CENTENNIAL     FAIR      64  54  69 SW5       30.21F
BROOMFIELD     FAIR      66  57  72 NW7       30.20F
LONGMONT       NOT AVBL
$$

COZ041-046-047-076>085-087-088-281000-
...PIKES PEAK/PALMER DIVIDE AND SOUTHERN FOOTHILLS...

CITY           SKY/WX    TMP DP  RH WIND       PRES   REMARKS
COLO. SPRINGS  FAIR      62  54  74 N8        30.26F
A. F. ACADEMY  FAIR      57  52  81 N8        30.27F
SCHRIEVER AFB  NOT AVBL
ELLICOTT       FAIR     N/A N/A N/A SE3       30.23F
FALCON         NOT AVBL
FORT CARSON    FAIR      61  55  80 NW6       30.22F
LIMON          FAIR      57  54  89 NE3       30.21F
MONUMENT HILL  FAIR      55  52  88 W10       30.32F
TRINIDAD       NOT AVBL
$$

COZ042>045-048>051-090-091-281000-
...NORTHEAST COLORADO...

CITY           SKY/WX    TMP DP  RH WIND       PRES   REMARKS
GREELEY ARPT   FAIR      63  57  82 CALM      30.16S
AKRON          FAIR      64  60  87 SE18      30.16F
BURLINGTON     FAIR      62  58  86 E12       30.17S
WRAY           FAIR      61  55  82 SW17      30.13F
STERLING       NOT AVBL
HOLYOKE        NOT AVBL
FORT MORGAN    NOT AVBL
$$

COZ086-089-092>099-281000-
...SOUTHEAST COLORADO...

CITY           SKY/WX    TMP DP  RH WIND       PRES   REMARKS
PUEBLO         FAIR      69  57  65 N8        30.13F
LA JUNTA       FAIR      69  58  67 E8        30.12F
LAMAR          FAIR      66  62  87 SE9       30.10F
SPRINGFIELD      N/A     63  58  83 SW6       30.14F
$$




USA.gov is the U.S. government's official web portal to all federal, state and local government web resources and services.